Regional Weather Roundup
Issued by NWS

Home | Current Version | Previous Version | Text Only | Print | Product List | Glossary On
Versions: 1 2 3 4 5 6 7 8 9 10 11 12 13 14 15 16 17 18 19 20 21 22 23 24 25 26 27 28
000
ASUS45 KBOI 300210
RWRID

IDAHO REGIONAL WEATHER ROUNDUP
NATIONAL WEATHER SERVICE BOISE ID
800 PM MDT MON MAY 29 2017

NOTE: "FAIR" INDICATES FEW OR NO CLOUDS BELOW 12000 FEET
WITH NO SIGNIFICANT WEATHER AND/OR OBSTRUCTIONS TO VISIBILITY

IDZ012-014-300300-
SOUTHWEST IDAHO


CITY           SKY/WX    TMP DP  RH WIND       PRES   REMARKS
BOISE          SUNNY     87  33  14 N6        29.94F
CALDWELL       SUNNY     86  42  21 N7        29.93S
MOUNTAIN HOME  SUNNY     85  33  15 E8        29.95F
$$

IDZ016-017-300300-
SOUTHCENTRAL IDAHO


CITY           SKY/WX    TMP DP  RH WIND       PRES   REMARKS
BURLEY         CLEAR     76  36  23 NE7       30.03S
JEROME         SUNNY     77  39  25 NE8       30.04S
TWIN FALLS     SUNNY     75  41  29 NE8       30.03F
$$

IDZ019>023-300300-
SOUTHEAST IDAHO


CITY           SKY/WX    TMP DP  RH WIND       PRES   REMARKS
IDAHO FALLS    CLEAR     72  44  36 NW7       30.10F
POCATELLO      CLEAR     76  43  30 N3        30.08S
REXBURG        CLEAR     70  42  36 W6        30.11R
$$

IDZ006-010-011-018-031-032-300300-
CENTRAL IDAHO MOUNTAINS


CITY           SKY/WX    TMP DP  RH WIND       PRES   REMARKS
MCCALL         SUNNY     74  29  19 NW6       30.08F
HAILEY         MOSUNNY   70  54  56 SE5       30.14S
STANLEY          N/A     67  34  29 NW3       30.18S
SALMON         SUNNY     75  46  35 S3        30.00F
CHALLIS        MOSUNNY   72  38  29 S15       30.08S
$$

IDZ002-004-006-007-026-300300-
NORTHERN IDAHO


CITY           SKY/WX    TMP DP  RH WIND       PRES   REMARKS
LEWISTON       SUNNY     88  41  19 W7        29.88S
LOWELL           N/A     70  51  51 CALM      29.88S
COEUR D`ALENE  SUNNY     84  44  24 W5        29.95S
MULLAN PASS    PTSUNNY   66  34  30 CALM      30.16F
$$




USA.gov is the U.S. government's official web portal to all federal, state and local government web resources and services.